Weather History for Marion, VA

Change the Weather History Date:

Friday, May 10, 2013

  Actual Average (KGEV) Record (KGEV)
Temperature  
Mean Temperature 62 °F -  
Max Temperature 77 °F 67 °F 82 °F (2003)
Min Temperature 50 °F 42 °F 26 °F (1966)
Degree Days  
Heating Degree Days 2    
Growing Degree Days 12 (Base 50)    
Moisture  
Dew Point 57 °F    
Average Humidity 87    
Maximum Humidity 100    
Minimum Humidity 52    
Precipitation  
Precipitation 0.51 in - - ()
Sea Level Pressure  
Sea Level Pressure 30.10 in    
Wind  
Wind Speed 0 mph (West)    
Max Wind Speed 12 mph    
Max Gust Speed 17 mph    
Visibility 8 miles    
Events Fog , Rain , Thunderstorm    
Averages and records for this station are not official NWS values.
T = Trace of Precipitation, MM = Missing Value Source: NWS Daily Summary

Daily Weather History Graph

Daily Weather History Graph

Search for Another Location

Airport:

Trip Planner

Search our weather history database for the weather conditions in past years. The results will help you decide how hot, cold, wet, or windy it might be!

Date:

Astronomy

May. 10, 2013 Rise Set
Actual Time 6:21 AM EDT 8:22 PM EDT
Civil Twilight 5:53 AM EDT 8:50 PM EDT
Nautical Twilight 5:18 AM EDT 9:25 PM EDT
Astronomical Twilight 4:41 AM EDT 10:03 PM EDT
Moon 6:45 AM EDT (5/10) 9:09 PM EDT (5/10)
Length of Visible Light 14h 57m
Length of Day
14h 00m
New Moon, 0% of the Moon is Illuminated
May 10
New Moon
May 18
First Quarter
May 25
Full
May 31
Last Quarter
Jun 8
New

Hourly Weather History & Observations

Time (EDT) Temp. Dew Point Humidity Pressure Visibility Wind Dir Wind Speed Gust Speed Precip Events Conditions
12:15 AM 55.6 °F 55.6 °F 100% 30.16 in 7.0 mi Calm Calm - N/A   Clear
12:35 AM 54.7 °F 54.7 °F 100% 30.16 in 10.0 mi Calm Calm - N/A   Clear
12:55 AM 54.9 °F 54.9 °F 100% 30.16 in 10.0 mi Calm Calm - N/A   Scattered Clouds
1:15 AM 54.1 °F 54.1 °F 100% 30.16 in 3.0 mi Calm Calm - N/A   Scattered Clouds
1:55 AM 53.2 °F 53.2 °F 100% 30.16 in 10.0 mi West 3.5 mph - N/A   Clear
2:15 AM 53.8 °F 53.8 °F 100% 30.16 in 10.0 mi Calm Calm - N/A   Scattered Clouds
2:35 AM 53.4 °F 53.4 °F 100% 30.16 in 10.0 mi Calm Calm - N/A   Overcast
2:55 AM 53.8 °F 53.8 °F 100% 30.15 in 10.0 mi Calm Calm - N/A   Overcast
3:15 AM 54.0 °F 53.8 °F 99% 30.14 in 10.0 mi Calm Calm - N/A   Scattered Clouds
3:35 AM 52.9 °F 52.9 °F 100% 30.14 in 5.0 mi Calm Calm - N/A   Clear
3:55 AM 52.3 °F 52.3 °F 100% 30.14 in 5.0 mi Calm Calm - N/A   Clear
4:15 AM 52.3 °F 52.3 °F 100% 30.14 in 7.0 mi Calm Calm - N/A   Clear
4:35 AM 52.2 °F 52.2 °F 100% 30.14 in 5.0 mi Calm Calm - N/A   Clear
4:55 AM 52.0 °F 52.0 °F 100% 30.14 in 3.0 mi Calm Calm - N/A   Clear
5:15 AM 51.4 °F 51.4 °F 100% 30.14 in 5.0 mi Calm Calm - N/A   Clear
5:35 AM 51.4 °F 51.4 °F 100% 30.13 in 7.0 mi Calm Calm - N/A   Clear
5:55 AM 50.9 °F 50.9 °F 100% 30.13 in 7.0 mi Calm Calm - N/A   Clear
6:15 AM 50.5 °F 50.4 °F 99% 30.13 in 7.0 mi Calm Calm - N/A   Clear
6:35 AM 50.0 °F 50.0 °F 100% 30.13 in 0.5 mi Calm Calm - N/A Fog Fog
6:55 AM 50.5 °F 50.5 °F 100% 30.14 in 1.5 mi Calm Calm - N/A   Scattered Clouds
7:15 AM 50.7 °F 50.7 °F 100% 30.14 in 4.0 mi Calm Calm - N/A   Clear
7:35 AM 52.7 °F 52.7 °F 100% 30.14 in 5.0 mi Calm Calm - N/A   Clear
8:15 AM 57.2 °F 56.5 °F 97% 30.14 in 10.0 mi Calm Calm - N/A   Clear
8:35 AM 59.9 °F 57.2 °F 91% 30.13 in 10.0 mi Calm Calm - N/A   Clear
9:15 AM 66.9 °F 57.6 °F 72% 30.12 in 10.0 mi Calm Calm - N/A   Clear
9:35 AM 70.2 °F 58.1 °F 65% 30.12 in 10.0 mi Calm Calm - N/A   Clear
9:55 AM 70.5 °F 57.4 °F 63% 30.12 in 10.0 mi West 4.6 mph - N/A   Clear
10:15 AM 70.9 °F 57.2 °F 62% 30.12 in 10.0 mi West 3.5 mph - N/A   Clear
10:35 AM 72.0 °F 57.2 °F 60% 30.12 in 10.0 mi Calm Calm - N/A   Clear
10:55 AM 71.6 °F 56.8 °F 60% 30.11 in 10.0 mi Calm Calm - N/A   Clear
11:15 AM 73.2 °F 57.7 °F 58% 30.11 in 10.0 mi Calm Calm - N/A   Clear
11:35 AM 73.4 °F 57.4 °F 57% 30.11 in 10.0 mi Calm Calm - N/A   Clear
11:55 AM 74.3 °F 56.5 °F 54% 30.11 in 10.0 mi Calm Calm - N/A   Mostly Cloudy
12:15 PM 74.5 °F 55.9 °F 52% 30.10 in 10.0 mi Calm Calm - N/A   Overcast
12:35 PM 74.5 °F 56.3 °F 53% 30.10 in 10.0 mi Calm Calm - N/A   Mostly Cloudy
1:15 PM 75.0 °F 57.7 °F 55% 30.08 in 10.0 mi Calm Calm - N/A   Mostly Cloudy
1:35 PM 74.5 °F 57.2 °F 55% 30.08 in 10.0 mi Calm Calm - N/A Rain Light Rain
1:55 PM 75.2 °F 56.7 °F 52% 30.07 in 10.0 mi Calm Calm - N/A   Mostly Cloudy
2:15 PM 75.9 °F 58.5 °F 55% 30.06 in 10.0 mi Calm Calm - N/A   Overcast
2:35 PM 75.2 °F 57.9 °F 55% 30.06 in 10.0 mi Calm Calm - N/A   Overcast
2:55 PM 74.3 °F 57.6 °F 56% 30.06 in 10.0 mi Calm Calm - N/A   Overcast
3:15 PM 69.1 °F 60.4 °F 74% 30.05 in 7.0 mi Calm Calm - 0.13 in Rain Light Rain
3:35 PM 71.6 °F 63.1 °F 75% 30.05 in 10.0 mi Calm Calm - 0.13 in   Mostly Cloudy
3:55 PM 72.5 °F 61.9 °F 69% 30.04 in 10.0 mi Calm Calm - 0.13 in Thunderstorm Overcast
4:15 PM 71.8 °F 60.8 °F 68% 30.06 in 10.0 mi SSE 6.9 mph - N/A Thunderstorm Thunderstorm
4:35 PM 59.7 °F 53.8 °F 81% 30.07 in 2.5 mi NE 3.5 mph - 0.21 in Rain , Thunderstorm Light Thunderstorms and Rain
4:55 PM 61.2 °F 59.0 °F 93% 30.07 in 5.0 mi West 6.9 mph 17.3 mph 0.31 in Rain , Thunderstorm Heavy Thunderstorms and Rain
5:15 PM 60.8 °F 60.3 °F 98% 30.09 in 10.0 mi WSW 11.5 mph - 0.03 in Rain , Thunderstorm Light Thunderstorms and Rain
5:35 PM 61.7 °F 60.3 °F 95% 30.06 in 5.0 mi Calm Calm - 0.06 in Rain Rain
5:55 PM 61.7 °F 61.3 °F 99% 30.06 in 10.0 mi WNW 4.6 mph - 0.07 in   Mostly Cloudy
6:35 PM 61.9 °F 61.5 °F 99% 30.05 in 10.0 mi Calm Calm - N/A Thunderstorm Thunderstorm
6:55 PM 61.7 °F 61.2 °F 98% 30.05 in 10.0 mi Calm Calm - N/A Rain , Thunderstorm Light Thunderstorms and Rain
7:15 PM 61.7 °F 61.2 °F 98% 30.04 in 10.0 mi Calm Calm - N/A Thunderstorm Mostly Cloudy
7:35 PM 61.7 °F 61.5 °F 99% 30.04 in 10.0 mi Calm Calm - N/A   Scattered Clouds
7:55 PM 61.5 °F 61.5 °F 100% 30.04 in 7.0 mi Calm Calm - N/A   Scattered Clouds
8:15 PM 61.2 °F 61.2 °F 100% 30.04 in 2.5 mi Calm Calm - N/A   Clear
8:35 PM 60.6 °F 60.6 °F 100% 30.04 in 5.0 mi Calm Calm - N/A   Clear
8:55 PM 61.0 °F 61.0 °F 100% 30.05 in 10.0 mi Calm Calm - N/A   Mostly Cloudy
9:15 PM 60.8 °F 60.8 °F 100% 30.04 in 7.0 mi Calm Calm - N/A   Mostly Cloudy
9:35 PM 60.4 °F 60.4 °F 100% 30.05 in 4.0 mi Calm Calm - N/A   Mostly Cloudy
9:55 PM 60.8 °F 60.8 °F 100% 30.04 in 7.0 mi Calm Calm - N/A   Scattered Clouds
10:15 PM 60.8 °F 60.8 °F 100% 30.05 in 7.0 mi Calm Calm - N/A   Clear
10:35 PM 60.4 °F 60.4 °F 100% 30.04 in 5.0 mi Calm Calm - N/A   Scattered Clouds
10:55 PM 60.3 °F 60.3 °F 100% 30.04 in 4.0 mi Calm Calm - N/A   Mostly Cloudy
11:15 PM 59.9 °F 59.9 °F 100% 30.03 in 2.0 mi Calm Calm - N/A   Overcast
11:35 PM 59.9 °F 59.9 °F 100% 30.04 in 0.5 mi Calm Calm - N/A Fog Fog
11:55 PM 59.9 °F 59.9 °F 100% 30.03 in 1.2 mi Calm Calm - N/A   Overcast